Regional Weather Roundup
Issued by NWS Cleveland, OH

Home | Current Version | Previous Version | Graphics & Text | Print | Product List | Glossary On
Versions: 1 2 3 4 5 6 7 8 9 10 11 12 13 14 15 16 17 18 19 20 21 22 23 24 25 26 27 28 29 30 31 32 33 34 35 36 37 38 39 40 41 42 43 44 45 46 47 48 49 50
000
ASUS41 KCLE 020100
RWRCLE
OHIO REGIONAL WEATHER ROUNDUP
NATIONAL WEATHER SERVICE WILMINGTON, OH
900 PM EDT FRI AUG 01 2014

NOTE: "FAIR" INDICATES FEW OR NO CLOUDS BELOW 12,000 FEET WITH NO
SIGNIFICANT WEATHER AND/OR OBSTRUCTIONS TO VISIBILITY.

OHZ001>008-015>018-024>027-034-035-043-044-020200-
   NORTHWEST OHIO

CITY           SKY/WX    TMP DP  RH WIND       PRES   REMARKS
DEFIANCE       MOCLDY    71  62  73 N3        30.09R
FINDLAY        MOCLDY    77  60  55 N15       30.08R
TOLEDO EXPRESS MOCLDY    68  65  90 CALM      30.08R FOG
TOLEDO METCALF PTCLDY    74  61  63 NE5       30.09S
LIMA           MOCLDY    74  64  71 CALM      30.08S
$$

OHZ009>014-019>023-028>033-038-089-020200-
   NORTHEAST OHIO

CITY           SKY/WX    TMP DP  RH WIND       PRES   REMARKS
CLE-HOPKINS    MOCLDY    74  62  66 CALM      30.11S
CLE-LAKEFRONT  MOCLDY    74  66  76 NE7       30.08S
CUY CO. ARPT   MOCLDY    75  64  69 E7        30.11S
LORAIN-ELYRIA  MOCLDY    74  64  71 NE5       30.10S
ASHTABULA      MOCLDY    69  63  81 E3        30.12S
AKRON-CANTON   MOCLDY    73  61  65 NE3       30.10S
WOOSTER        NOT AVBL
MANSFIELD      PTCLDY    66  60  81 CALM      30.11S
YOUNGSTOWN     MOCLDY    69  61  75 N7        30.11S THUNDER
$$

OHZ042-051>053-060>062-070>072-077>081-020200-
  SOUTHWEST OHIO

CITY           SKY/WX    TMP DP  RH WIND       PRES   REMARKS
CINC-COVINGTON PTCLDY    75  60  59 CALM      30.06S
CINC-LUNKEN    MOCLDY    73  66  78 CALM      30.06R
HAMILTON       CLOUDY    74  65  73 CALM      30.07R
DAYTON         NOT AVBL
WRIGHT-PAT AFB PTCLDY    75  65  72 CALM      30.07S
DAYTON GENERAL CLEAR     74  62  66 E3        30.07R
WILMINGTON     CLEAR     71  64  78 E3        30.07S
$$

OHZ036-037-039>041-045>050-054>059-063>069-073>076-082>088-020200-
  CENTRAL AND SOUTHEAST OHIO

CITY           SKY/WX    TMP DP  RH WIND       PRES   REMARKS
COLUMBUS       MOCLDY    79  63  57 NE5       30.07R
OSU AIRPORT    CLOUDY    74  63  68 NE6       30.08R
BOLTON FIELD   NOT AVBL
RICKENBACK AFB NOT AVBL
NEWARK         CLEAR     74  63  68 N5        30.08R
MARION         PTCLDY    70  62  76 CALM      30.09R
LANCASTER      PTCLDY    69  64  84 CALM      30.07S
ZANESVILLE     CLEAR     72  61  68 SE3       30.08S
NEW PHILLY     PTCLDY    70  64  81 CALM      30.09R
$$



USA.gov is the U.S. government's official web portal to all federal, state and local government web resources and services.